Overview Statistics Trail Chart Weather Telemetry Raw packets
 

This is the latest recevied weather packets stored in our database for station/object 9W2EXL-13. If no packets are shown the sender has not sent any weather packets the latest 10 day(s).

<< 2 3 4 5 6 7 8 >>
Time Temp. Humidity Pressure Rain* Wind** Luminosity Snow
1788473216 29.44° C 97% 1011.9 hPa - - - -
1788472315 29.44° C 98% 1012 hPa - - - -
1788471415 29.44° C 96% 1011.9 hPa - - - -
1788466916 29.44° C 97% 1011.5 hPa - - - -
1788462414 30° C 95% 1012 hPa - - - -
1788461514 30° C 95% 1012.2 hPa - - - -
1788458814 30° C 95% 1012.5 hPa - - - -
1788457014 30° C 94% 1012.8 hPa - - - -
1788455213 30° C 93% 1013.2 hPa - - - -
1788449813 30.56° C 92% 1013.7 hPa - - - -
1788448913 30.56° C 90% 1013.9 hPa - - - -
1788448013 31.11° C 89% 1013.8 hPa - - - -
1788447117 31.11° C 89% 1013.6 hPa - - - -
1788446212 30.56° C 89% 1013.5 hPa - - - -
1788444412 30.56° C 88% 1013.2 hPa - - - -
1788443512 30.56° C 90% 1012.9 hPa - - - -
1788442612 31.11° C 89% 1012.5 hPa - - - -
1788441712 31.11° C 88% 1012.5 hPa - - - -
1788440812 31.11° C 86% 1012.1 hPa - - - -
1788439912 31.11° C 85% 1011.9 hPa - - - -
1788438111 31.67° C 83% 1011.7 hPa - - - -
1788433611 32.78° C 75% 1010.6 hPa - - - -
1788432711 32.78° C 74% 1010.2 hPa - - - -
1788431811 33.33° C 72% 1010 hPa - - - -
1788430011 33.33° C 75% 1010.2 hPa - - - -

* Rain since midnight (hover to see other rain measurements)
** Current wind speed in m/s (hover to see current wind gust speed)